Weather Roundup
Issued by NWS Chicago, IL

Home | Current Version | Previous Version | Graphics & Text | Print | Product List | Glossary On
Versions: 1 2 3 4 5 6 7 8 9 10 11 12 13 14 15 16 17 18 19 20 21 22 23 24 25 26 27 28 29 30 31 32 33 34 35 36 37 38 39 40 41 42 43 44 45 46 47 48 49 50
000
NZUS59 KLOT 310610
HRRLOT

CHICAGO AREA WEATHER ROUNDUP
NATIONAL WEATHER SERVICE CHICAGO/ROMEOVILLE IL
1200 AM CST SAT JAN 31 2015

NOTE: "FAIR" INDICATES FEW OR NO CLOUDS BELOW 12,000 FEET WITH NO
SIGNIFICANT WEATHER AND/OR OBSTRUCTIONS TO VISIBILITY.

* THESE STATIONS ARE NOT UNDER NWS QUALITY CONTROL. THEY ALSO MAY NOT
  REPORT WEATHER SUCH AS PRECIPITATION OR FOG.

ILZ005-006-012>014-019>023-310700-
NORTHEAST ILLINOIS

CITY           SKY/WX    TMP DP  RH WIND       PRES   REMARKS
OHARE          PTCLDY    20  13  74 S7        30.35F WCI  11
6HR MIN TEMP:  18; 6HR MAX TEMP:  25;

MIDWAY         PTCLDY    23  14  68 SW5       30.36F WCI  17
6HR MIN TEMP:  23; 6HR MAX TEMP:  28;

AURORA         CLOUDY    19  14  81 CALM      30.35F
6HR MIN TEMP:  18; 6HR MAX TEMP:  24;

LANSING*       CLEAR     19  14  82 S5        30.37F WCI  12
JOLIET*        PTCLDY    16  13  89 CALM      30.37F
WAUKEGAN       PTCLDY    16  12  84 S5        30.32F WCI   9
6HR MIN TEMP:  16; 6HR MAX TEMP:  23;

DUPAGE AIRPORT MOCLDY    17  12  80 S3        30.34F
6HR MIN TEMP:  15; 6HR MAX TEMP:  24;

WHEELING       CLEAR     19  12  74 S5        30.36F WCI  12
6HR MIN TEMP:  19; 6HR MAX TEMP:  26;

KANKAKEE*      CLEAR     23  20  87 S6        30.38F WCI  16
MORRIS*        MOCLDY    21  19  92 CALM      30.36F
LEWIS AIRPORT* MOCLDY    19  15  84 S6        30.36F WCI  11
NORTHERLY IS     N/A     25  14  63 S6          N/A  WCI  18
$$

WIZ051-052-058>065-066-070>072-310700-
SOUTHEAST WISCONSIN

CITY           SKY/WX    TMP DP  RH WIND       PRES   REMARKS
MILWAUKEE      PTCLDY    20  11  68 SW9       30.31F WCI   9
6HR MIN TEMP:  19; 6HR MAX TEMP:  25;

KENOSHA*       PTCLDY    19  13  77 SW7       30.31F WCI  10
RACINE*        PTCLDY    19  12  74 S7        30.32F WCI  10
BURLINGTON     MOCLDY    13  11  91 S5        30.29F WCI   6
WAUKESHA       PTCLDY    18  10  73 SW6       30.30S WCI   9
WEST BEND      PTCLDY    19  12  73 SW5       30.28F WCI  13
$$

INZ001>003-010>013-019-020-310700-
NORTHWEST INDIANA

CITY           SKY/WX    TMP DP  RH WIND       PRES   REMARKS
GARY*          CLEAR     20  13  75 CALM      30.37F
6HR MIN TEMP:  17; 6HR MAX TEMP:  25;

MICHIGAN CITY* NOT AVBL
RENSSELAER*    NOT AVBL
VALPARAISO     CLEAR     18  14  84 S3        30.36F
$$

LMZ740>746-310700-
SOUTHERN LAKE MICHIGAN

STATION/POSITION TIME  SKY/WX   TEMP WIND        PRES    VSBY
                                AIR  DIR/SP/G
                 (UTC)          (F)  (DEG/KT/KT) (MB)    (MI)
HARRISON CRIB    0600            25  200/ 13/ 16   N/A
BURNHAM HARBOR   0600            25  200/  4/  6   N/A
CALUMET HARBOR   0600            24  200/  4/  5   N/A
BURNS HARBOR     NOT AVBL
MICHIGAN CITY    0600            23  170/  9/ 11   N/A
$$

ABBREVIATIONS USED IN REMARKS
   TC - TEMPERATURE IN CELSIUS
  WCI - WIND CHILL INDEX
   HX - HEAT INDEX
  VSB - VISIBILITY
$$


USA.gov is the U.S. government's official web portal to all federal, state and local government web resources and services.